DMSP 5D-2 F13 DEB, 40499

Orbit data source: Space-Track

DMSP 5D-2 F13 DEB, 40499 is space debris in SSO originally from a launch on Fri, 24 Mar 1995 UTC launched from the Air Force Western Test Range (AFWTR). Debris objects in space refer to the collection of defunct objects orbiting the Earth. Examples of debris include non-operational satellites, rocket bodies, and fragments generated from explosions, collisions, or faulty payload assembly.

Loading next visibility...
Identifier
40499, 1995-015CN
Orbit
SSO
Country
Flag of USUS
Related business
Manufacturer
Unknown
Mission
Spacecraft
Bus & Motor
Unknown
Mass
Unknown
Launch date (UTC)
1995-03-24 (31 years ago)
Launch vehicle
Unknown
Launch site
Air Force Western Test Range (AFWTR)
Object type
Payload
Rocket body
Debris
Shape & HBR
Unknown shape, 0.1 m
Radar Cross Section
Medium (>0.1 m² and <1 m²)

Expand to show TLE details & history
Last TLE update: 2 days ago

TLE from 2 days ago
0 DMSP 5D-2 F13 DEB
1 40499U 95015CN  26191.06301175  .00002632  00000-0  83675-3 0  9993
2 40499  98.6851 230.4896 0009483 158.6326 201.5260 14.40739807588507
Epoch: 2026-07-10T01:30Z
TLE epoch observation values (Epoch: 2026-07-10T01:30:44.215Z)
Latitude
0.00003°
Longitude
-80.1906°
Altitude
765.294 km
Speed
7.468 km/s
True Right ascension
15h 21m 57s
True Declination
0° 00' 00"
Sunlit
Object was in full shadow at epoch
Visualization orbit readout
Latitude
Unknown
Longitude
Unknown
Altitude
Unknown
Speed
Unknown
Apparent Right ascension
Unknown
Apparent Declination
Unknown
Sunlit
N/A
Visualization observer readout
Local Sidereal Time
02:59:35
Azimuth
Unknown
Elevation
Unknown
Doppler factor
Unknown
Orbital elements
Apogee altitude
759.948 km
Perigee altitude
746.422 km
Semi-major axis
7,131.322 km
Eccentricity
0.00095
Inclination
98.6851°
RAAN
230.4896°
Arg. of periapsis
158.6326°
True anomaly
201.48617°
Mean anomaly
201.526°
Eccentric anomaly
201.50608°
Mean motion
3.60403 °/min
Orbital period
99.89 mins
BSTAR
0.00083675

Documentation

Showing up to 5 results
|